Previsão horária em a/p Chisinau International Airport

Hoje, 26 Janeiro, Terça-feira

Tempo Temperatura Precipitação Vento Pressão Humidade
00:00 +1°C° 0 mm 6 m/s 746 mmHg 68%
01:00 +1°C° 0 mm 5 m/s 747 mmHg 68%
02:00 0°C° 0 mm 4 m/s 748 mmHg 67%
03:00 0°C° 0 mm 4 m/s 748 mmHg 67%
04:00 0°C° 0 mm 3 m/s 749 mmHg 67%
05:00 0°C° 0 mm 3 m/s 749 mmHg 67%
06:00 0°C° 0.1 mm 3 m/s 750 mmHg 71%
07:00 0°C° 0.1 mm 3 m/s 750 mmHg 75%
08:00 +2°C° 0.1 mm 2 m/s 750 mmHg 78%
09:00 +2°C° 0 mm 2 m/s 751 mmHg 78%
10:00 +4°C° 0 mm 1 m/s 751 mmHg 77%
11:00 +4°C° 0 mm 1 m/s 751 mmHg 77%
12:00 +5°C° 0 mm 1 m/s 751 mmHg 74%
13:00 +4°C° 0 mm 2 m/s 751 mmHg 71%
14:00 +4°C° 0 mm 2 m/s 751 mmHg 69%
15:00 +3°C° 0 mm 2 m/s 751 mmHg 71%
16:00 +3°C° 0 mm 2 m/s 752 mmHg 72%
17:00 +1°C° 0 mm 3 m/s 752 mmHg 74%
18:00 +1°C° 0 mm 3 m/s 752 mmHg 76%
19:00 +1°C° 0 mm 3 m/s 752 mmHg 78%
20:00 0°C° 0 mm 3 m/s 753 mmHg 79%
21:00 0°C° 0 mm 3 m/s 753 mmHg 78%
22:00 0°C° 0 mm 3 m/s 753 mmHg 77%
23:00 -1°C° 0 mm 4 m/s 753 mmHg 76%

Amanhã, 27 Janeiro, Quarta-feira

Tempo Temperatura Precipitação Vento Pressão Humidade
00:00 -1°C° 0 mm 4 m/s 753 mmHg 76%
01:00 -1°C° 0 mm 5 m/s 753 mmHg 77%
02:00 -2°C° 0 mm 5 m/s 753 mmHg 78%
03:00 -2°C° 0.1 mm 5 m/s 752 mmHg 79%
04:00 -3°C° 0.1 mm 6 m/s 752 mmHg 81%
05:00 -3°C° 0.1 mm 6 m/s 752 mmHg 82%
06:00 -3°C° 0.5 mm 6 m/s 751 mmHg 85%
07:00 -3°C° 0.5 mm 7 m/s 751 mmHg 87%
08:00 -4°C° 0.5 mm 7 m/s 751 mmHg 90%
09:00 -4°C° 1.1 mm 8 m/s 750 mmHg 91%
10:00 -4°C° 1.1 mm 8 m/s 750 mmHg 93%
11:00 -4°C° 1.1 mm 8 m/s 750 mmHg 94%
12:00 -4°C° 1.5 mm 9 m/s 749 mmHg 95%
13:00 -4°C° 1.5 mm 10 m/s 748 mmHg 95%
14:00 -4°C° 1.5 mm 10 m/s 747 mmHg 95%
15:00 -4°C° 2.6 mm 10 m/s 747 mmHg 95%
16:00 -4°C° 2.6 mm 10 m/s 746 mmHg 96%
17:00 -5°C° 2.6 mm 10 m/s 746 mmHg 96%
18:00 -5°C° 1.8 mm 10 m/s 746 mmHg 95%
19:00 -5°C° 1.8 mm 10 m/s 745 mmHg 95%
20:00 -5°C° 1.8 mm 10 m/s 745 mmHg 94%
21:00 -4°C° 0.3 mm 10 m/s 745 mmHg 94%
22:00 -4°C° 0.3 mm 10 m/s 745 mmHg 93%
23:00 -4°C° 0.3 mm 9 m/s 745 mmHg 92%

Depois de amanhã, 28 Janeiro, Quinta-feira

Tempo Temperatura Precipitação Vento Pressão Humidade
00:00 -4°C° 0.3 mm 9 m/s 744 mmHg 93%
01:00 -4°C° 0.3 mm 9 m/s 744 mmHg 93%
02:00 -4°C° 0.3 mm 8 m/s 744 mmHg 94%
03:00 -5°C° 0.4 mm 8 m/s 744 mmHg 94%
04:00 -5°C° 0.4 mm 8 m/s 743 mmHg 95%
05:00 -5°C° 0.4 mm 9 m/s 743 mmHg 96%
06:00 -5°C° 1.6 mm 8 m/s 743 mmHg 96%
07:00 -5°C° 1.6 mm 8 m/s 743 mmHg 96%
08:00 -5°C° 1.6 mm 8 m/s 743 mmHg 96%
09:00 -5°C° 0.5 mm 8 m/s 743 mmHg 96%
10:00 -4°C° 0.5 mm 8 m/s 743 mmHg 96%
11:00 -4°C° 0.5 mm 8 m/s 744 mmHg 96%
12:00 -4°C° 0.2 mm 8 m/s 744 mmHg 96%
13:00 -4°C° 0.2 mm 8 m/s 744 mmHg 97%
14:00 -2°C° 0.2 mm 8 m/s 744 mmHg 97%
15:00 -3°C° 0.2 mm 7 m/s 744 mmHg 96%
16:00 -3°C° 0.2 mm 7 m/s 744 mmHg 95%
17:00 -3°C° 0.2 mm 7 m/s 745 mmHg 94%
18:00 -4°C° 0.1 mm 7 m/s 745 mmHg 93%
19:00 -4°C° 0.1 mm 7 m/s 745 mmHg 93%
20:00 -4°C° 0.1 mm 7 m/s 746 mmHg 92%
21:00 -4°C° 0.1 mm 6 m/s 746 mmHg 92%
22:00 -4°C° 0.1 mm 6 m/s 747 mmHg 92%
23:00 -5°C° 0.1 mm 6 m/s 747 mmHg 92%

29 Janeiro, Sexta-feira

Tempo Temperatura Precipitação Vento Pressão Humidade
00:00 -5°C° 0 mm 5 m/s 747 mmHg 91%
01:00 -6°C° 0 mm 5 m/s 748 mmHg 89%
02:00 -6°C° 0 mm 5 m/s 748 mmHg 88%
03:00 -7°C° 0 mm 4 m/s 748 mmHg 87%
04:00 -6°C° 0 mm 3 m/s 748 mmHg 87%
05:00 -6°C° 0 mm 2 m/s 748 mmHg 86%
06:00 -6°C° 0 mm 3 m/s 748 mmHg 86%
07:00 -5°C° 0 mm 3 m/s 748 mmHg 85%
08:00 -4°C° 0 mm 4 m/s 748 mmHg 84%
09:00 -3°C° 0.1 mm 4 m/s 747 mmHg 87%
10:00 -4°C° 0.1 mm 5 m/s 747 mmHg 89%
11:00 -3°C° 0.1 mm 6 m/s 747 mmHg 92%
12:00 -1°C° 0 mm 5 m/s 746 mmHg 93%
13:00 -1°C° 0 mm 5 m/s 746 mmHg 93%
14:00 -1°C° 0 mm 5 m/s 745 mmHg 94%
15:00 -1°C° 0 mm 4 m/s 745 mmHg 93%
16:00 -1°C° 0 mm 3 m/s 745 mmHg 93%
17:00 -2°C° 0 mm 2 m/s 746 mmHg 92%
18:00 0°C° 0 mm 1 m/s 746 mmHg 91%
19:00 -1°C° 0 mm 1 m/s 746 mmHg 89%
20:00 -1°C° 0 mm 1 m/s 746 mmHg 88%
21:00 -2°C° 0 mm 0 m/s 746 mmHg 88%
22:00 -1°C° 0 mm 0 m/s 746 mmHg 88%
23:00 -1°C° 0 mm 0 m/s 746 mmHg 89%

30 Janeiro, Sábado

Tempo Temperatura Precipitação Vento Pressão Humidade
00:00 0°C° 0.2 mm 1 m/s 746 mmHg 92%
01:00 0°C° 0.2 mm 1 m/s 746 mmHg 95%
02:00 +1°C° 0.2 mm 1 m/s 746 mmHg 97%
03:00 -2°C° 0.2 mm 2 m/s 746 mmHg 97%
04:00 -2°C° 0.2 mm 2 m/s 746 mmHg 97%
05:00 -2°C° 0.2 mm 3 m/s 745 mmHg 97%
06:00 -2°C° 0.1 mm 3 m/s 746 mmHg 96%
07:00 -2°C° 0.1 mm 3 m/s 746 mmHg 95%
08:00 -3°C° 0.1 mm 2 m/s 747 mmHg 94%
09:00 -2°C° 0 mm 2 m/s 747 mmHg 91%
10:00 -2°C° 0 mm 2 m/s 747 mmHg 87%
11:00 -1°C° 0 mm 2 m/s 747 mmHg 84%
12:00 -1°C° 0 mm 2 m/s 747 mmHg 85%
13:00 -1°C° 0 mm 2 m/s 747 mmHg 87%
14:00 -1°C° 0 mm 2 m/s 747 mmHg 88%
15:00 -2°C° 0 mm 2 m/s 747 mmHg 88%
16:00 -3°C° 0 mm 2 m/s 747 mmHg 89%
17:00 -4°C° 0 mm 2 m/s 747 mmHg 90%
18:00 -4°C° 0 mm 2 m/s 748 mmHg 91%
19:00 -4°C° 0 mm 2 m/s 749 mmHg 92%
20:00 -4°C° 0 mm 2 m/s 749 mmHg 94%
21:00 -5°C° 0 mm 2 m/s 750 mmHg 94%
22:00 -3°C° 0 mm 1 m/s 750 mmHg 94%
23:00 -3°C° 0 mm 1 m/s 751 mmHg 94%

31 Janeiro, Domingo

Tempo Temperatura Precipitação Vento Pressão Humidade
00:00 -4°C° 0 mm 1 m/s 751 mmHg 94%
01:00 -7°C° 0 mm 2 m/s 752 mmHg 93%
02:00 -7°C° 0 mm 2 m/s 752 mmHg 93%
03:00 -8°C° 0 mm 2 m/s 752 mmHg 92%
04:00 -8°C° 0 mm 2 m/s 752 mmHg 90%
05:00 -8°C° 0 mm 2 m/s 752 mmHg 89%
06:00 -9°C° 0 mm 2 m/s 753 mmHg 88%
07:00 -8°C° 0 mm 1 m/s 754 mmHg 86%
08:00 -8°C° 0 mm 1 m/s 754 mmHg 85%
09:00 -6°C° 0 mm 1 m/s 754 mmHg 84%
10:00 -6°C° 0 mm 2 m/s 755 mmHg 84%
11:00 -4°C° 0 mm 2 m/s 755 mmHg 83%
12:00 -3°C° 0 mm 2 m/s 755 mmHg 84%
13:00 -2°C° 0 mm 2 m/s 755 mmHg 84%
14:00 -2°C° 0 mm 2 m/s 755 mmHg 85%
15:00 -3°C° 0 mm 2 m/s 755 mmHg 87%
16:00 -4°C° 0 mm 2 m/s 755 mmHg 89%
17:00 -3°C° 0 mm 1 m/s 754 mmHg 91%
18:00 -4°C° 0 mm 1 m/s 755 mmHg 92%
19:00 -7°C° 0 mm 2 m/s 755 mmHg 93%
20:00 -7°C° 0 mm 2 m/s 755 mmHg 94%
21:00 -7°C° 0 mm 2 m/s 755 mmHg 94%
22:00 -8°C° 0 mm 2 m/s 755 mmHg 94%
23:00 -8°C° 0 mm 2 m/s 754 mmHg 94%
Mostrar mais